OIAH  Gachsaran Airport

Add Bookmark

Iran

Status
Operational
Latitude Longitude
30° 20' 15" N 50° 49' 40" E
30.337601 50.827999
Local (DST + 5) UTC (GMT + 4)
Oct 25, 2014 07:29 Oct 25, 2014 15:59
Sunrise-Sunset Local UTC
Begin Civil Twilight 05:50 02:20
Sunrise 06:14 02:44
Sunset 05:26 13:56
End Civil Twilight 05:51 14:21

Current Weather

METAR Observed VFR
OIAH 251500Z 26008KT CAVOK 27/02 Q1014 Sat, Oct 25, 2014 @ 15:00 UTC
(59 Minutes ago)
Visual Flight Rules
Wind Visibility Clouds Conditions
260° at 8 knots (15 kph) 10 km or more
  • Clear skies
  • No significant weather
Temperatures Readings Precipitation
Current Temp 27°C (81°F)
Dewpoint 2°C (36°F)
Humidity 20%
Altimeter 29.94"Hg
Sea Level Pressure 1014mb
Field Elevation 2421.26'
None Recorded

Additional weather within a 92.6km radius of OIAH

Map ICAO Location
OISY 79.6km E (059°)

24 Hour Weather History

Loading
-

24 Hour Weather Graphs

Loading
-

CheckWX.com is intended as a tool to help pilots better visualize weather data. It is not intended as a substitute for an official weather briefing obtained from a Flight Service Station. CheckWX.com does not meet the FAA requirements for an official pre-flight weather briefing. Therefore, it's important that pilots still call and obtain an official FSS pre-flight weather briefing.